Radiation Dose at Monitoring Post of Fukushima Daini Nuclear Power Station
Date,Time,MP-1(microSv/h),MP-2(microSv/h),MP-3(microSv/h),MP-4(microSv/h),MP-5(microSv/h),MP-6(microSv/h),MP-7(microSv/h),Wind Direction,Wind Velocity(m/s),Rain
2016/08/15,00:00,0.428,0.256,0.448,0.409,0.378,0.210,0.181,south-southwest,3.6,No
2016/08/15,00:10,0.436,0.256,0.451,0.407,0.373,0.211,0.181,south-southwest,3.3,No
2016/08/15,00:20,0.433,0.255,0.451,0.406,0.377,0.211,0.180,south-southwest,3.7,No
2016/08/15,00:30,0.430,0.256,0.449,0.410,0.377,0.210,0.180,south-southwest,3.6,No
2016/08/15,00:40,0.433,0.255,0.451,0.408,0.373,0.210,0.180,south-southwest,3.0,No
2016/08/15,00:50,0.431,0.256,0.452,0.407,0.378,0.210,0.179,south-southwest,3.3,No
2016/08/15,01:00,0.430,0.257,0.446,0.410,0.376,0.209,0.181,south-southwest,3.3,No
2016/08/15,01:10,0.433,0.253,0.450,0.407,0.375,0.209,0.181,south-southwest,4.3,No
2016/08/15,01:20,0.431,0.256,0.451,0.410,0.379,0.209,0.179,south-southwest,5.2,No
2016/08/15,01:30,0.431,0.255,0.447,0.410,0.376,0.209,0.181,south-southwest,5.9,No
2016/08/15,01:40,0.433,0.254,0.452,0.406,0.376,0.211,0.180,south-southwest,5.8,No
2016/08/15,01:50,0.429,0.257,0.449,0.410,0.378,0.209,0.181,south,6.9,No
2016/08/15,02:00,0.434,0.255,0.449,0.407,0.374,0.210,0.180,south-southwest,6.1,No
2016/08/15,02:10,0.430,0.255,0.452,0.408,0.379,0.210,0.180,south-southwest,4.6,No
2016/08/15,02:20,0.431,0.255,0.447,0.410,0.376,0.211,0.182,south-southwest,5.4,No
2016/08/15,02:30,0.432,0.253,0.451,0.406,0.375,0.211,0.179,south-southwest,5.8,No
2016/08/15,02:40,0.430,0.256,0.451,0.411,0.378,0.210,0.182,south-southwest,5.8,No
2016/08/15,02:50,0.435,0.255,0.448,0.408,0.377,0.211,0.180,south,5.4,No
2016/08/15,03:00,0.431,0.257,0.453,0.408,0.376,0.212,0.180,south,5.6,No
2016/08/15,03:10,0.431,0.256,0.451,0.412,0.379,0.211,0.180,south,4.8,No
2016/08/15,03:20,0.435,0.255,0.451,0.407,0.375,0.212,0.180,south-southwest,5.3,No
2016/08/15,03:30,0.430,0.257,0.452,0.410,0.380,0.210,0.182,south-southwest,4.3,No
2016/08/15,03:40,0.435,0.256,0.448,0.407,0.377,0.211,0.181,south-southwest,4.4,No
2016/08/15,03:50,0.432,0.256,0.452,0.408,0.377,0.211,0.182,south-southwest,4.7,No
2016/08/15,04:00,0.430,0.256,0.451,0.411,0.377,0.211,0.182,south,6.4,No
2016/08/15,04:10,0.434,0.255,0.452,0.408,0.375,0.212,0.181,south,7.0,No
2016/08/15,04:20,0.431,0.257,0.452,0.411,0.379,0.211,0.181,south,6.9,No
2016/08/15,04:30,0.434,0.255,0.449,0.407,0.376,0.211,0.180,south-southwest,6.6,No
2016/08/15,04:40,0.432,0.257,0.452,0.407,0.376,0.210,0.182,south-southwest,7.3,No
2016/08/15,04:50,0.430,0.255,0.450,0.410,0.378,0.210,0.181,south-southwest,6.9,No
2016/08/15,05:00,0.434,0.256,0.450,0.407,0.373,0.211,0.180,south-southwest,7.7,No
2016/08/15,05:10,0.428,0.256,0.451,0.412,0.378,0.210,0.180,south-southwest,7.8,No
2016/08/15,05:20,0.431,0.254,0.449,0.409,0.374,0.211,0.180,south-southwest,7.8,No
2016/08/15,05:30,0.431,0.255,0.450,0.407,0.375,0.210,0.181,south-southwest,7.0,No
2016/08/15,05:40,0.430,0.254,0.450,0.409,0.377,0.210,0.180,south-southwest,6.5,No
2016/08/15,05:50,0.434,0.255,0.447,0.406,0.373,0.209,0.180,south,5.3,No
2016/08/15,06:00,0.429,0.256,0.451,0.408,0.378,0.209,0.181,south,6.1,No
2016/08/15,06:10,0.433,0.254,0.448,0.408,0.376,0.210,0.179,south,6.8,No
2016/08/15,06:20,0.433,0.255,0.448,0.404,0.373,0.210,0.179,south,6.8,No
2016/08/15,06:30,0.429,0.254,0.452,0.407,0.377,0.208,0.182,south,6.4,No
2016/08/15,06:40,0.433,0.252,0.446,0.408,0.376,0.209,0.179,south,7.7,No
2016/08/15,06:50,0.432,0.256,0.447,0.405,0.373,0.210,0.178,south,8.3,No
2016/08/15,07:00,0.428,0.256,0.452,0.404,0.374,0.209,0.179,south,7.4,No
2016/08/15,07:10,0.429,0.254,0.449,0.409,0.378,0.210,0.180,south,6.3,No
2016/08/15,07:20,0.434,0.253,0.445,0.407,0.374,0.210,0.180,south-southwest,3.9,No
2016/08/15,07:30,0.431,0.255,0.448,0.404,0.372,0.209,0.178,south-southwest,6.1,No
2016/08/15,07:40,0.429,0.255,0.450,0.405,0.373,0.209,0.178,south-southwest,7.3,No
2016/08/15,07:50,0.429,0.255,0.450,0.409,0.377,0.210,0.178,south-southwest,8.0,No
2016/08/15,08:00,0.433,0.254,0.445,0.409,0.376,0.210,0.178,south-southwest,8.0,No
2016/08/15,08:10,0.432,0.253,0.444,0.406,0.374,0.209,0.179,south-southwest,9.0,No
2016/08/15,08:20,0.431,0.254,0.450,0.405,0.372,0.208,0.178,south-southwest,6.6,No
2016/08/15,08:30,0.429,0.254,0.453,0.404,0.371,0.210,0.179,south-southwest,6.1,No
2016/08/15,08:40,0.429,0.254,0.450,0.404,0.371,0.209,0.178,south-southwest,7.8,No
2016/08/15,08:50,0.426,0.254,0.448,0.403,0.371,0.210,0.179,south,8.5,No
2016/08/15,09:00,0.427,0.253,0.445,0.405,0.375,0.210,0.179,south,8.5,No
2016/08/15,09:10,0.435,0.254,0.447,0.409,0.379,0.212,0.178,south-southwest,6.5,No
2016/08/15,09:20,0.435,0.253,0.453,0.410,0.376,0.211,0.177,south-southwest,7.2,No
2016/08/15,09:30,0.432,0.252,0.449,0.409,0.376,0.209,0.178,south,7.9,No
2016/08/15,09:40,0.429,0.252,0.448,0.406,0.376,0.209,0.178,south,7.3,No
2016/08/15,09:50,0.428,0.253,0.447,0.404,0.374,0.210,0.179,south,7.8,No
2016/08/15,10:00,0.428,0.253,0.445,0.404,0.373,0.211,0.180,south,7.6,No
2016/08/15,10:10,0.427,0.253,0.445,0.404,0.373,0.210,0.179,south,7.5,No
2016/08/15,10:20,0.428,0.254,0.445,0.406,0.374,0.210,0.178,south,7.4,No
2016/08/15,10:30,0.429,0.254,0.445,0.407,0.376,0.211,0.179,south,8.9,No
2016/08/15,10:40,0.429,0.254,0.449,0.407,0.376,0.210,0.180,south,8.8,No
2016/08/15,10:50,0.429,0.255,0.449,0.408,0.373,0.210,0.179,south,9.8,No
2016/08/15,11:00,0.429,0.255,0.448,0.406,0.374,0.210,0.179,south,10.9,No
2016/08/15,11:10,0.429,0.256,0.449,0.407,0.375,0.210,0.180,south,11.2,No
2016/08/15,11:20,0.430,0.254,0.450,0.406,0.375,0.211,0.179,south,11.5,No
2016/08/15,11:30,0.429,0.255,0.447,0.406,0.376,0.209,0.179,south,11.2,No
2016/08/15,11:40,0.428,0.255,0.448,0.406,0.374,0.210,0.180,south,11.7,No
2016/08/15,11:50,0.432,0.256,0.449,0.408,0.375,0.210,0.181,south,11.5,No
2016/08/15,12:00,0.432,0.256,0.451,0.409,0.375,0.210,0.180,south,11.4,No
2016/08/15,12:10,0.431,0.254,0.450,0.409,0.374,0.211,0.179,south,11.8,No
2016/08/15,12:20,0.431,0.256,0.452,0.409,0.374,0.211,0.180,south,11.4,No
2016/08/15,12:30,0.432,0.255,0.451,0.409,0.374,0.211,0.179,south,10.7,No
2016/08/15,12:40,0.432,0.256,0.450,0.408,0.375,0.211,0.179,south,10.9,No
2016/08/15,12:50,0.430,0.255,0.450,0.409,0.373,0.210,0.180,south,10.7,No
2016/08/15,13:00,0.432,0.255,0.449,0.407,0.372,0.210,0.180,south,10.2,No
2016/08/15,13:10,0.429,0.254,0.449,0.407,0.374,0.211,0.179,south,9.5,No
2016/08/15,13:20,0.429,0.256,0.451,0.407,0.374,0.210,0.179,south,10.7,No
2016/08/15,13:30,0.430,0.255,0.452,0.409,0.374,0.211,0.180,south,11.8,No
2016/08/15,13:40,0.432,0.254,0.449,0.407,0.375,0.210,0.180,south,12.3,No
2016/08/15,13:50,0.429,0.255,0.452,0.405,0.374,0.210,0.178,south,11.1,No
2016/08/15,14:00,0.429,0.255,0.449,0.407,0.371,0.211,0.179,south,11.8,No
2016/08/15,14:10,0.429,0.254,0.448,0.406,0.372,0.210,0.179,south,11.6,No
2016/08/15,14:20,0.430,0.253,0.449,0.406,0.373,0.210,0.178,south,11.0,No
2016/08/15,14:30,0.430,0.254,0.448,0.406,0.376,0.211,0.178,south,11.2,No
2016/08/15,14:40,0.427,0.255,0.448,0.405,0.373,0.211,0.179,south,11.9,No
2016/08/15,14:50,0.429,0.254,0.447,0.405,0.376,0.211,0.179,south,12.0,No
2016/08/15,15:00,0.429,0.253,0.446,0.407,0.375,0.211,0.179,south,11.8,No
2016/08/15,15:10,0.430,0.255,0.448,0.405,0.375,0.210,0.179,south,10.0,No
2016/08/15,15:20,0.431,0.254,0.448,0.405,0.374,0.211,0.179,south,12.8,No
2016/08/15,15:30,0.429,0.255,0.448,0.406,0.374,0.210,0.179,south,12.3,No
2016/08/15,15:40,0.428,0.255,0.449,0.410,0.373,0.210,0.178,south,11.0,No
2016/08/15,15:50,0.429,0.254,0.448,0.413,0.375,0.211,0.178,south,10.5,No
2016/08/15,16:00,0.430,0.253,0.448,0.411,0.374,0.210,0.178,south,10.8,No
2016/08/15,16:10,0.428,0.253,0.446,0.411,0.373,0.209,0.177,south-southwest,8.9,No
2016/08/15,16:20,0.431,0.253,0.448,0.408,0.375,0.209,0.178,south-southwest,7.5,No
2016/08/15,16:30,0.436,0.253,0.446,0.407,0.374,0.209,0.179,south,7.8,No
2016/08/15,16:40,0.435,0.253,0.454,0.405,0.374,0.210,0.179,south,8.1,No
2016/08/15,16:50,0.433,0.254,0.454,0.404,0.374,0.210,0.180,south,8.9,No
2016/08/15,17:00,0.431,0.253,0.452,0.409,0.374,0.209,0.180,south,8.7,No
2016/08/15,17:10,0.428,0.255,0.449,0.411,0.373,0.211,0.179,south,9.0,No
2016/08/15,17:20,0.429,0.256,0.448,0.410,0.372,0.211,0.178,south,7.7,No
2016/08/15,17:30,0.434,0.256,0.448,0.408,0.376,0.209,0.181,south-southwest,7.5,No
2016/08/15,17:40,0.436,0.255,0.454,0.406,0.379,0.210,0.179,south-southwest,6.9,No
2016/08/15,17:50,0.431,0.254,0.454,0.411,0.379,0.210,0.179,south-southwest,6.6,No
2016/08/15,18:00,0.429,0.257,0.451,0.412,0.375,0.211,0.178,south,6.4,No
2016/08/15,18:10,0.430,0.256,0.446,0.409,0.372,0.210,0.180,south,8.1,No
2016/08/15,18:20,0.435,0.255,0.449,0.406,0.379,0.210,0.180,south,9.4,No
2016/08/15,18:30,0.435,0.253,0.455,0.409,0.379,0.210,0.180,south,9.9,No
2016/08/15,18:40,0.432,0.255,0.453,0.410,0.375,0.210,0.178,south,9.4,No
2016/08/15,18:50,0.428,0.255,0.448,0.408,0.373,0.210,0.181,south,10.1,No
2016/08/15,19:00,0.432,0.254,0.446,0.406,0.376,0.210,0.180,south-southwest,9.5,No
2016/08/15,19:10,0.433,0.252,0.452,0.408,0.377,0.210,0.179,south-southwest,9.7,No
2016/08/15,19:20,0.431,0.256,0.452,0.412,0.374,0.210,0.179,south-southwest,8.9,No
2016/08/15,19:30,0.429,0.255,0.450,0.409,0.373,0.210,0.181,south,8.8,No
2016/08/15,19:40,0.429,0.254,0.447,0.408,0.375,0.210,0.180,south,9.0,No
2016/08/15,19:50,0.435,0.253,0.448,0.408,0.379,0.209,0.179,south,8.6,No
2016/08/15,20:00,0.432,0.256,0.454,0.410,0.375,0.210,0.178,south,8.5,No
2016/08/15,20:10,0.428,0.255,0.451,0.411,0.372,0.210,0.180,south,7.9,No
2016/08/15,20:20,0.431,0.254,0.448,0.407,0.377,0.210,0.180,south,9.5,No
2016/08/15,20:30,0.435,0.254,0.450,0.407,0.376,0.209,0.179,south-southwest,8.9,No
2016/08/15,20:40,0.431,0.257,0.454,0.410,0.376,0.210,0.179,south-southwest,9.9,No
2016/08/15,20:50,0.428,0.254,0.451,0.409,0.371,0.210,0.180,south-southwest,10.1,No
2016/08/15,21:00,0.429,0.253,0.447,0.406,0.378,0.210,0.179,south-southwest,8.8,No
2016/08/15,21:10,0.435,0.255,0.448,0.406,0.376,0.210,0.179,south-southwest,7.5,No
2016/08/15,21:20,0.432,0.256,0.454,0.411,0.375,0.209,0.180,south-southwest,7.9,No
2016/08/15,21:30,0.429,0.254,0.452,0.410,0.372,0.209,0.180,south-southwest,8.1,No
2016/08/15,21:40,0.430,0.255,0.449,0.406,0.376,0.209,0.181,south-southwest,8.9,No
2016/08/15,21:50,0.434,0.256,0.448,0.406,0.377,0.209,0.179,south-southwest,9.0,No
2016/08/15,22:00,0.432,0.256,0.454,0.410,0.376,0.209,0.179,south-southwest,8.7,No
2016/08/15,22:10,0.430,0.253,0.454,0.411,0.372,0.211,0.181,south-southwest,8.3,No
2016/08/15,22:20,0.430,0.254,0.448,0.409,0.375,0.210,0.180,south-southwest,9.1,No
2016/08/15,22:30,0.433,0.256,0.448,0.405,0.377,0.211,0.178,south-southwest,8.9,No
2016/08/15,22:40,0.434,0.254,0.449,0.410,0.374,0.209,0.180,south-southwest,8.3,No
2016/08/15,22:50,0.429,0.253,0.456,0.411,0.374,0.210,0.181,south-southwest,8.7,No
2016/08/15,23:00,0.429,0.255,0.452,0.407,0.374,0.211,0.180,south-southwest,7.4,No
2016/08/15,23:10,0.434,0.257,0.449,0.407,0.378,0.211,0.178,south-southwest,8.3,No
2016/08/15,23:20,0.432,0.255,0.447,0.408,0.377,0.209,0.180,south-southwest,7.8,No
2016/08/15,23:30,0.428,0.253,0.454,0.412,0.372,0.209,0.181,south-southwest,7.1,No
2016/08/15,23:40,0.429,0.256,0.453,0.409,0.373,0.211,0.180,south-southwest,7.6,No
2016/08/15,23:50,0.433,0.256,0.449,0.405,0.378,0.211,0.179,south-southwest,8.9,No
